• In Latvia
  • List of Countries
  • For 7 days
  • Water Temperature
  • Satellite Maps
  • Weather Map
  • Weather Widgets
  • user-avatar
    Login

    Hourly Weather San Luis

    Today, 21 November, Tuesday

    Time Temperature Precipitation Wind Pressure Humidity
    00:00 +16°C° 0 mm 6 mps 699 mmHg 53%
    01:00 +16°C° 0 mm 5 mps 699 mmHg 56%
    02:00 +15°C° 0 mm 4 mps 699 mmHg 59%
    03:00 +15°C° 0 mm 4 mps 699 mmHg 61%
    04:00 +14°C° 0 mm 3 mps 699 mmHg 63%
    05:00 +14°C° 0 mm 3 mps 700 mmHg 64%
    06:00 +17°C° 0 mm 3 mps 700 mmHg 54%
    07:00 +19°C° 0 mm 4 mps 701 mmHg 45%
    08:00 +21°C° 0 mm 4 mps 702 mmHg 35%
    09:00 +22°C° 0 mm 3 mps 702 mmHg 30%
    10:00 +24°C° 0 mm 3 mps 702 mmHg 25%
    11:00 +26°C° 0 mm 3 mps 702 mmHg 20%
    12:00 +26°C° 0 mm 3 mps 701 mmHg 18%
    13:00 +27°C° 0 mm 3 mps 701 mmHg 16%
    14:00 +28°C° 0 mm 2 mps 700 mmHg 14%
    15:00 +28°C° 0 mm 3 mps 700 mmHg 14%
    16:00 +28°C° 0 mm 3 mps 699 mmHg 14%
    17:00 +28°C° 0 mm 4 mps 699 mmHg 13%
    18:00 +26°C° 0 mm 4 mps 699 mmHg 16%
    19:00 +23°C° 0 mm 4 mps 699 mmHg 20%
    20:00 +21°C° 0 mm 5 mps 699 mmHg 23%
    21:00 +21°C° 0 mm 5 mps 699 mmHg 25%
    22:00 +20°C° 0 mm 5 mps 699 mmHg 28%
    23:00 +19°C° 0 mm 5 mps 699 mmHg 30%

    Tomorrow, 22 November, Wednesday

    Time Temperature Precipitation Wind Pressure Humidity
    00:00 +19°C° 0 mm 5 mps 699 mmHg 32%
    01:00 +19°C° 0 mm 5 mps 699 mmHg 35%
    02:00 +19°C° 0 mm 5 mps 698 mmHg 37%
    03:00 +19°C° 0 mm 6 mps 698 mmHg 42%
    04:00 +18°C° 0 mm 7 mps 698 mmHg 46%
    05:00 +18°C° 0 mm 8 mps 697 mmHg 51%
    06:00 +20°C° 0 mm 8 mps 698 mmHg 47%
    07:00 +22°C° 0 mm 9 mps 698 mmHg 44%
    08:00 +23°C° 0 mm 10 mps 698 mmHg 40%
    09:00 +26°C° 0 mm 10 mps 698 mmHg 36%
    10:00 +28°C° 0 mm 9 mps 698 mmHg 31%
    11:00 +29°C° 0 mm 9 mps 698 mmHg 27%
    12:00 +31°C° 0 mm 8 mps 697 mmHg 24%
    13:00 +32°C° 0 mm 8 mps 697 mmHg 22%
    14:00 +33°C° 0 mm 7 mps 696 mmHg 20%
    15:00 +33°C° 0 mm 6 mps 695 mmHg 19%
    16:00 +33°C° 0 mm 6 mps 695 mmHg 18%
    17:00 +33°C° 0 mm 5 mps 694 mmHg 18%
    18:00 +30°C° 0 mm 5 mps 694 mmHg 21%
    19:00 +28°C° 0 mm 4 mps 694 mmHg 25%
    20:00 +26°C° 0 mm 4 mps 694 mmHg 29%
    21:00 +24°C° 0 mm 6 mps 694 mmHg 30%
    22:00 +24°C° 0 mm 7 mps 694 mmHg 31%
    23:00 +24°C° 0 mm 8 mps 694 mmHg 32%

    Day after tomorrow, 23 November, Thursday

    Time Temperature Precipitation Wind Pressure Humidity
    00:00 +24°C° 0 mm 9 mps 694 mmHg 33%
    01:00 +23°C° 0 mm 9 mps 694 mmHg 35%
    02:00 +23°C° 0 mm 10 mps 693 mmHg 36%
    03:00 +23°C° 0 mm 10 mps 694 mmHg 37%
    04:00 +22°C° 0 mm 9 mps 694 mmHg 37%
    05:00 +22°C° 0 mm 9 mps 694 mmHg 38%
    06:00 +24°C° 0 mm 8 mps 694 mmHg 34%
    07:00 +26°C° 0 mm 8 mps 695 mmHg 31%
    08:00 +28°C° 0 mm 7 mps 696 mmHg 27%
    09:00 +29°C° 0 mm 6 mps 696 mmHg 24%
    10:00 +32°C° 0 mm 5 mps 696 mmHg 22%
    11:00 +34°C° 0 mm 4 mps 697 mmHg 19%
    12:00 +34°C° 0 mm 4 mps 696 mmHg 18%
    13:00 +35°C° 0 mm 3 mps 695 mmHg 16%
    14:00 +36°C° 0 mm 3 mps 695 mmHg 15%
    15:00 +35°C° 0 mm 4 mps 695 mmHg 16%
    16:00 +35°C° 0 mm 5 mps 694 mmHg 16%
    17:00 +35°C° 0 mm 5 mps 694 mmHg 17%
    18:00 +32°C° 0.1 mm 6 mps 694 mmHg 21%
    19:00 +29°C° 0.1 mm 7 mps 694 mmHg 26%
    20:00 +27°C° 0.1 mm 8 mps 695 mmHg 30%
    21:00 +24°C° 0.1 mm 9 mps 695 mmHg 35%
    22:00 +23°C° 0.1 mm 10 mps 696 mmHg 39%
    23:00 +21°C° 0.1 mm 11 mps 696 mmHg 43%

    24 November, Friday

    Time Temperature Precipitation Wind Pressure Humidity
    00:00 +19°C° 0 mm 11 mps 696 mmHg 46%
    01:00 +19°C° 0 mm 10 mps 696 mmHg 48%
    02:00 +18°C° 0 mm 10 mps 696 mmHg 51%
    03:00 +17°C° 0 mm 9 mps 696 mmHg 55%
    04:00 +16°C° 0 mm 9 mps 696 mmHg 60%
    05:00 +15°C° 0 mm 8 mps 695 mmHg 64%
    06:00 +17°C° 0.1 mm 8 mps 696 mmHg 58%
    07:00 +20°C° 0.1 mm 8 mps 697 mmHg 51%
    08:00 +22°C° 0.1 mm 8 mps 697 mmHg 45%
    09:00 +24°C° 0 mm 7 mps 697 mmHg 39%
    10:00 +28°C° 0 mm 7 mps 697 mmHg 33%
    11:00 +30°C° 0 mm 6 mps 697 mmHg 28%
    12:00 +32°C° 0 mm 7 mps 697 mmHg 27%
    13:00 +32°C° 0 mm 7 mps 696 mmHg 27%
    14:00 +33°C° 0 mm 7 mps 696 mmHg 27%
    15:00 +31°C° 0.1 mm 8 mps 695 mmHg 33%
    16:00 +29°C° 0.1 mm 9 mps 695 mmHg 39%
    17:00 +27°C° 0.1 mm 10 mps 695 mmHg 45%
    18:00 +24°C° 0 mm 8 mps 695 mmHg 50%
    19:00 +23°C° 0 mm 7 mps 696 mmHg 55%
    20:00 +21°C° 0 mm 5 mps 696 mmHg 59%
    21:00 +21°C° 0 mm 5 mps 697 mmHg 58%
    22:00 +20°C° 0 mm 4 mps 697 mmHg 57%
    23:00 +20°C° 0 mm 3 mps 698 mmHg 56%

    25 November, Saturday

    Time Temperature Precipitation Wind Pressure Humidity
    00:00 +20°C° 0 mm 3 mps 698 mmHg 53%
    01:00 +19°C° 0 mm 3 mps 698 mmHg 50%
    02:00 +19°C° 0 mm 3 mps 697 mmHg 47%
    03:00 +19°C° 0 mm 3 mps 698 mmHg 46%
    04:00 +18°C° 0 mm 3 mps 698 mmHg 46%
    05:00 +18°C° 0 mm 2 mps 698 mmHg 45%
    06:00 +20°C° 0 mm 2 mps 699 mmHg 37%
    07:00 +24°C° 0 mm 2 mps 699 mmHg 29%
    08:00 +27°C° 0 mm 1 mps 700 mmHg 21%
    09:00 +28°C° 0 mm 2 mps 700 mmHg 18%
    10:00 +29°C° 0 mm 2 mps 700 mmHg 15%
    11:00 +31°C° 0 mm 2 mps 700 mmHg 12%
    12:00 +32°C° 0 mm 2 mps 699 mmHg 12%
    13:00 +32°C° 0 mm 2 mps 698 mmHg 11%
    14:00 +33°C° 0 mm 1 mps 698 mmHg 11%
    15:00 +34°C° 0 mm 2 mps 697 mmHg 11%
    16:00 +34°C° 0 mm 2 mps 697 mmHg 11%
    17:00 +34°C° 0 mm 3 mps 696 mmHg 12%
    18:00 +32°C° 0 mm 4 mps 696 mmHg 15%
    19:00 +29°C° 0 mm 5 mps 696 mmHg 19%
    20:00 +27°C° 0 mm 6 mps 696 mmHg 23%
    21:00 +26°C° 0 mm 6 mps 696 mmHg 25%
    22:00 +24°C° 0 mm 6 mps 696 mmHg 27%
    23:00 +24°C° 0 mm 6 mps 696 mmHg 30%

    26 November, Sunday

    Time Temperature Precipitation Wind Pressure Humidity
    00:00 +24°C° 0 mm 6 mps 695 mmHg 32%
    01:00 +23°C° 0 mm 6 mps 695 mmHg 34%
    02:00 +23°C° 0 mm 6 mps 694 mmHg 37%
    03:00 +23°C° 0 mm 7 mps 694 mmHg 38%
    04:00 +23°C° 0 mm 7 mps 694 mmHg 39%
    05:00 +23°C° 0 mm 7 mps 694 mmHg 40%
    06:00 +24°C° 0 mm 8 mps 694 mmHg 36%
    07:00 +27°C° 0 mm 8 mps 694 mmHg 32%
    08:00 +29°C° 0 mm 9 mps 695 mmHg 28%
    09:00 +32°C° 0 mm 8 mps 694 mmHg 25%
    10:00 +33°C° 0 mm 7 mps 694 mmHg 22%
    11:00 +35°C° 0 mm 7 mps 694 mmHg 18%
    12:00 +35°C° 0 mm 6 mps 693 mmHg 17%
    13:00 +36°C° 0 mm 6 mps 692 mmHg 16%
    14:00 +38°C° 0 mm 6 mps 691 mmHg 15%
    15:00 +38°C° 0 mm 6 mps 690 mmHg 15%
    16:00 +36°C° 0 mm 5 mps 690 mmHg 16%
    17:00 +36°C° 0 mm 5 mps 689 mmHg 16%
    18:00 +34°C° 0 mm 5 mps 689 mmHg 19%
    19:00 +32°C° 0 mm 5 mps 688 mmHg 22%
    20:00 +29°C° 0 mm 5 mps 688 mmHg 25%
    21:00 +28°C° 0 mm 5 mps 688 mmHg 28%
    22:00 +28°C° 0 mm 6 mps 689 mmHg 31%
    23:00 +27°C° 0 mm 7 mps 689 mmHg 34%
    Show more